Time,TemperatureF,DewpointF,PressureIn,WindDirection,WindDirectionDegrees,WindSpeedMPH,WindSpeedGustMPH,Humidity,HourlyPrecipIn,Conditions,Clouds,dailyrainin,SoftwareType,DateUTC
2013-04-26 00:02:00,61.0,-99.9,-100.00,SSE,155,5.0,7.0,-999,0.00,,,-99.99,,2013-04-26 05:02:00,
2013-04-26 00:13:00,61.0,-99.9,-100.00,SSE,155,5.0,7.0,-999,0.00,,,-99.99,,2013-04-26 05:13:00,
2013-04-26 00:22:00,62.0,-99.9,-100.00,SE,143,7.0,9.0,-999,0.00,,,-99.99,,2013-04-26 05:22:00,
2013-04-26 00:32:00,62.0,-99.9,-100.00,SE,132,7.0,10.0,-999,0.00,,,-99.99,,2013-04-26 05:32:00,
2013-04-26 00:42:00,62.0,-99.9,-100.00,SE,132,7.0,10.0,-999,0.00,,,-99.99,,2013-04-26 05:42:00,
2013-04-26 00:52:00,61.0,-99.9,-100.00,SE,143,6.0,8.0,-999,0.00,,,-99.99,,2013-04-26 05:52:00,
2013-04-26 01:02:00,61.0,-99.9,-100.00,SSE,158,6.0,9.0,-999,0.00,,,-99.99,,2013-04-26 06:02:00,
2013-04-26 01:12:00,61.0,-99.9,-100.00,SSE,158,6.0,9.0,-999,0.00,,,-99.99,,2013-04-26 06:12:00,
2013-04-26 01:22:00,62.0,-99.9,-100.00,SE,138,7.0,9.0,-999,0.00,,,-99.99,,2013-04-26 06:22:00,
2013-04-26 01:32:00,60.0,-99.9,-100.00,SSE,153,5.0,9.0,-999,0.00,,,-99.99,,2013-04-26 06:32:00,
2013-04-26 01:42:00,60.0,-99.9,-100.00,SSE,153,5.0,9.0,-999,0.00,,,-99.99,,2013-04-26 06:42:00,
2013-04-26 01:52:00,60.0,-99.9,-100.00,SSE,155,5.0,8.0,-999,0.00,,,-99.99,,2013-04-26 06:52:00,
2013-04-26 02:02:00,60.0,-99.9,-100.00,SSE,158,6.0,9.0,-999,0.00,,,-99.99,,2013-04-26 07:02:00,
2013-04-26 02:12:00,60.0,-99.9,-100.00,SSE,158,6.0,9.0,-999,0.00,,,-99.99,,2013-04-26 07:12:00,
2013-04-26 02:22:00,60.0,-99.9,-100.00,SE,146,5.0,9.0,-999,0.00,,,-99.99,,2013-04-26 07:22:00,
2013-04-26 02:32:00,59.0,-99.9,-100.00,SE,125,4.0,6.0,-999,0.00,,,-99.99,,2013-04-26 07:32:00,
2013-04-26 02:42:00,59.0,-99.9,-100.00,SE,125,4.0,6.0,-999,0.00,,,-99.99,,2013-04-26 07:42:00,
2013-04-26 02:52:00,60.0,-99.9,-100.00,SE,146,5.0,9.0,-999,0.00,,,-99.99,,2013-04-26 07:52:00,
2013-04-26 03:03:00,61.0,-99.9,-100.00,SE,131,7.0,10.0,-999,0.00,,,-99.99,,2013-04-26 08:03:00,
2013-04-26 03:12:00,61.0,-99.9,-100.00,SE,131,7.0,10.0,-999,0.00,,,-99.99,,2013-04-26 08:12:00,
2013-04-26 03:22:00,60.0,-99.9,-100.00,SE,134,7.0,11.0,-999,0.00,,,-99.99,,2013-04-26 08:22:00,
2013-04-26 03:32:00,59.0,-99.9,-100.00,SE,143,8.0,12.0,-999,0.00,,,-99.99,,2013-04-26 08:32:00,
2013-04-26 03:42:00,59.0,-99.9,-100.00,SE,143,8.0,12.0,-999,0.00,,,-99.99,,2013-04-26 08:42:00,
2013-04-26 03:52:00,60.0,-99.9,-100.00,SSE,162,8.0,11.0,-999,0.00,,,-99.99,,2013-04-26 08:52:00,
2013-04-26 04:02:00,59.0,-99.9,-100.00,SE,141,8.0,11.0,-999,0.00,,,-99.99,,2013-04-26 09:02:00,
2013-04-26 04:12:00,59.0,-99.9,-100.00,SE,141,8.0,11.0,-999,0.00,,,-99.99,,2013-04-26 09:12:00,
2013-04-26 04:22:00,58.0,-99.9,-100.00,SSE,156,8.0,10.0,-999,0.00,,,-99.99,,2013-04-26 09:22:00,
2013-04-26 04:33:00,58.0,-99.9,-100.00,SSE,149,7.0,10.0,-999,0.00,,,-99.99,,2013-04-26 09:33:00,
2013-04-26 04:43:00,58.0,-99.9,-100.00,SSE,149,7.0,10.0,-999,0.00,,,-99.99,,2013-04-26 09:43:00,
2013-04-26 04:53:00,58.0,-99.9,-100.00,SE,139,5.0,9.0,-999,0.00,,,-99.99,,2013-04-26 09:53:00,
2013-04-26 05:03:00,58.0,-99.9,-100.00,SSE,163,5.0,8.0,-999,0.00,,,-99.99,,2013-04-26 10:03:00,
2013-04-26 05:12:00,58.0,-99.9,-100.00,SSE,163,5.0,8.0,-999,0.00,,,-99.99,,2013-04-26 10:12:00,
2013-04-26 05:23:00,58.0,-99.9,-100.00,SE,131,5.0,8.0,-999,0.00,,,-99.99,,2013-04-26 10:23:00,
2013-04-26 05:33:00,58.0,-99.9,-100.00,SE,129,6.0,10.0,-999,0.00,,,-99.99,,2013-04-26 10:33:00,
2013-04-26 05:42:00,58.0,-99.9,-100.00,SE,129,6.0,10.0,-999,0.00,,,-99.99,,2013-04-26 10:42:00,
2013-04-26 05:52:00,58.0,-99.9,-100.00,ESE,121,5.0,7.0,-999,0.00,,,-99.99,,2013-04-26 10:52:00,
2013-04-26 06:02:00,57.0,-99.9,-100.00,ESE,122,6.0,8.0,-999,0.00,,,-99.99,,2013-04-26 11:02:00,
2013-04-26 06:12:00,57.0,-99.9,-100.00,ESE,122,6.0,8.0,-999,0.00,,,-99.99,,2013-04-26 11:12:00,
2013-04-26 06:22:00,57.0,-99.9,-100.00,SE,132,6.0,8.0,-999,0.00,,,-99.99,,2013-04-26 11:22:00,
2013-04-26 06:32:00,56.0,-99.9,-100.00,SE,127,6.0,9.0,-999,0.00,,,-99.99,,2013-04-26 11:32:00,
2013-04-26 06:42:00,56.0,-99.9,-100.00,SE,127,6.0,9.0,-999,0.00,,,-99.99,,2013-04-26 11:42:00,
2013-04-26 06:52:00,57.0,-99.9,-100.00,SE,134,6.0,8.0,-999,0.00,,,-99.99,,2013-04-26 11:52:00,
2013-04-26 07:02:00,57.0,-99.9,-100.00,ESE,110,6.0,10.0,-999,0.00,,,-99.99,,2013-04-26 12:02:00,
2013-04-26 07:12:00,57.0,-99.9,-100.00,ESE,110,6.0,10.0,-999,0.00,,,-99.99,,2013-04-26 12:12:00,
2013-04-26 07:22:00,57.0,-99.9,-100.00,SE,129,7.0,9.0,-999,0.00,,,-99.99,,2013-04-26 12:22:00,
2013-04-26 07:32:00,58.0,-99.9,-100.00,ESE,121,6.0,8.0,-999,0.00,,,-99.99,,2013-04-26 12:32:00,
2013-04-26 07:42:00,58.0,-99.9,-100.00,ESE,121,6.0,8.0,-999,0.00,,,-99.99,,2013-04-26 12:42:00,
2013-04-26 07:52:00,58.0,-99.9,-100.00,SE,128,7.0,10.0,-999,0.00,,,-99.99,,2013-04-26 12:52:00,
2013-04-26 08:01:00,58.0,-99.9,-100.00,SE,125,5.0,9.0,-999,0.00,,,-99.99,,2013-04-26 13:01:00,
2013-04-26 08:12:00,58.0,-99.9,-100.00,SE,125,5.0,9.0,-999,0.00,,,-99.99,,2013-04-26 13:12:00,
2013-04-26 08:22:00,58.0,-99.9,-100.00,SE,136,7.0,10.0,-999,0.00,,,-99.99,,2013-04-26 13:22:00,
2013-04-26 08:32:00,58.0,-99.9,-100.00,SE,125,6.0,9.0,-999,0.00,,,-99.99,,2013-04-26 13:32:00,
2013-04-26 08:42:00,58.0,-99.9,-100.00,SE,125,6.0,9.0,-999,0.00,,,-99.99,,2013-04-26 13:42:00,
2013-04-26 08:52:00,58.0,-99.9,-100.00,SE,134,7.0,9.0,-999,0.00,,,-99.99,,2013-04-26 13:52:00,
2013-04-26 09:02:00,58.0,-99.9,-100.00,ESE,122,5.0,8.0,-999,0.00,,,-99.99,,2013-04-26 14:02:00,
2013-04-26 09:11:00,58.0,-99.9,-100.00,ESE,122,5.0,8.0,-999,0.00,,,-99.99,,2013-04-26 14:11:00,
2013-04-26 09:22:00,54.0,-99.9,-100.00,East,79,3.0,5.0,-999,0.00,,,-99.99,,2013-04-26 14:22:00,
2013-04-26 09:32:00,54.0,-99.9,-100.00,ESE,114,7.0,10.0,-999,0.00,,,-99.99,,2013-04-26 14:32:00,
2013-04-26 09:42:00,54.0,-99.9,-100.00,ESE,114,7.0,10.0,-999,0.00,,,-99.99,,2013-04-26 14:42:00,
2013-04-26 09:52:00,54.0,-99.9,-100.00,NE,55,5.0,6.0,-999,0.00,,,-99.99,,2013-04-26 14:52:00,
2013-04-26 10:02:00,53.0,-99.9,-100.00,NE,42,1.0,3.0,-999,0.00,,,-99.99,,2013-04-26 15:02:00,
2013-04-26 10:12:00,53.0,-99.9,-100.00,NE,42,1.0,3.0,-999,0.00,,,-99.99,,2013-04-26 15:12:00,
2013-04-26 10:22:00,54.0,-99.9,-100.00,ENE,63,5.0,55.0,-999,0.00,,,-99.99,,2013-04-26 15:22:00,
2013-04-26 10:33:00,54.0,-99.9,-100.00,North,354,3.0,7.0,-999,0.00,,,-99.99,,2013-04-26 15:33:00,
2013-04-26 10:43:00,54.0,-99.9,-100.00,North,354,3.0,7.0,-999,0.00,,,-99.99,,2013-04-26 15:43:00,
2013-04-26 10:53:00,55.0,-99.9,-100.00,NE,38,8.0,11.0,-999,0.00,,,-99.99,,2013-04-26 15:53:00,
2013-04-26 11:03:00,54.0,-99.9,-100.00,NE,49,9.0,13.0,-999,0.00,,,-99.99,,2013-04-26 16:03:00,
2013-04-26 11:13:00,54.0,-99.9,-100.00,NE,49,9.0,13.0,-999,0.00,,,-99.99,,2013-04-26 16:13:00,
2013-04-26 11:23:00,54.0,-99.9,-100.00,NNE,25,7.0,10.0,-999,0.00,,,-99.99,,2013-04-26 16:23:00,
2013-04-26 11:33:00,54.0,-99.9,-100.00,NNE,28,8.0,11.0,-999,0.00,,,-99.99,,2013-04-26 16:33:00,
2013-04-26 11:42:00,54.0,-99.9,-100.00,NNE,28,8.0,11.0,-999,0.00,,,-99.99,,2013-04-26 16:42:00,
2013-04-26 11:53:00,54.0,-99.9,-100.00,NE,49,8.0,13.0,-999,0.00,,,-99.99,,2013-04-26 16:53:00,
2013-04-26 12:02:00,53.0,-99.9,-100.00,NE,51,9.0,13.0,-999,0.00,,,-99.99,,2013-04-26 17:02:00,
2013-04-26 12:12:00,53.0,-99.9,-100.00,NE,51,9.0,13.0,-999,0.00,,,-99.99,,2013-04-26 17:12:00,
2013-04-26 12:22:00,54.0,-99.9,-100.00,NE,51,9.0,16.0,-999,0.00,,,-99.99,,2013-04-26 17:22:00,
2013-04-26 12:32:00,55.0,-99.9,-100.00,ENE,65,9.0,15.0,-999,0.00,,,-99.99,,2013-04-26 17:32:00,
2013-04-26 12:42:00,55.0,-99.9,-100.00,ENE,65,9.0,15.0,-999,0.00,,,-99.99,,2013-04-26 17:42:00,
2013-04-26 12:52:00,54.0,-99.9,-100.00,NE,51,9.0,16.0,-999,0.00,,,-99.99,,2013-04-26 17:52:00,
2013-04-26 13:02:00,55.0,-99.9,-100.00,East,80,10.0,15.0,-999,0.00,,,-99.99,,2013-04-26 18:02:00,
2013-04-26 13:12:00,55.0,-99.9,-100.00,East,96,9.0,17.0,-999,0.00,,,-99.99,,2013-04-26 18:12:00,
2013-04-26 13:22:00,55.0,-99.9,-100.00,East,96,9.0,17.0,-999,0.00,,,-99.99,,2013-04-26 18:22:00,
2013-04-26 13:33:00,54.0,-99.9,-100.00,East,89,12.0,19.0,-999,0.00,,,-99.99,,2013-04-26 18:33:00,
2013-04-26 13:42:00,54.0,-99.9,-100.00,East,89,12.0,19.0,-999,0.00,,,-99.99,,2013-04-26 18:42:00,
2013-04-26 13:52:00,54.0,-99.9,-100.00,East,100,10.0,16.0,-999,0.00,,,-99.99,,2013-04-26 18:52:00,
2013-04-26 14:02:00,54.0,-99.9,-100.00,East,87,8.0,13.0,-999,0.00,,,-99.99,,2013-04-26 19:02:00,
2013-04-26 14:12:00,54.0,-99.9,-100.00,East,87,8.0,13.0,-999,0.00,,,-99.99,,2013-04-26 19:12:00,
2013-04-26 14:22:00,54.0,-99.9,-100.00,North,-999,8.0,14.0,-999,0.00,,,-99.99,,2013-04-26 19:22:00,
2013-04-26 14:32:00,54.0,-99.9,-100.00,ESE,111,7.0,10.0,-999,0.00,,,-99.99,,2013-04-26 19:32:00,
2013-04-26 14:42:00,54.0,-99.9,-100.00,ESE,111,7.0,10.0,-999,0.00,,,-99.99,,2013-04-26 19:42:00,
2013-04-26 14:52:00,54.0,-99.9,-100.00,ESE,122,9.0,12.0,-999,0.00,,,-99.99,,2013-04-26 19:52:00,
2013-04-26 15:02:00,53.0,-99.9,-100.00,ESE,113,9.0,13.0,-999,0.00,,,-99.99,,2013-04-26 20:02:00,
2013-04-26 15:11:00,53.0,-99.9,-100.00,ESE,113,6.0,8.0,-999,0.00,,,-99.99,,2013-04-26 20:11:00,
2013-04-26 15:22:00,53.0,-99.9,-100.00,ESE,113,6.0,8.0,-999,0.00,,,-99.99,,2013-04-26 20:22:00,
2013-04-26 15:32:00,53.0,-99.9,-100.00,ESE,107,9.0,12.0,-999,0.00,,,-99.99,,2013-04-26 20:32:00,
2013-04-26 15:42:00,53.0,-99.9,-100.00,ESE,107,9.0,12.0,-999,0.00,,,-99.99,,2013-04-26 20:42:00,
2013-04-26 15:52:00,53.0,-99.9,-100.00,East,101,9.0,12.0,-999,0.00,,,-99.99,,2013-04-26 20:52:00,
2013-04-26 16:02:00,54.0,-99.9,-100.00,ESE,110,8.0,11.0,-999,0.00,,,-99.99,,2013-04-26 21:02:00,
2013-04-26 16:11:00,54.0,-99.9,-100.00,ESE,110,8.0,11.0,-999,0.00,,,-99.99,,2013-04-26 21:11:00,
2013-04-26 16:22:00,54.0,-99.9,-100.00,ESE,107,8.0,15.0,-999,0.00,,,-99.99,,2013-04-26 21:22:00,
2013-04-26 16:33:00,54.0,-99.9,-100.00,ESE,110,9.0,14.0,-999,0.00,,,-99.99,,2013-04-26 21:33:00,
2013-04-26 16:42:00,54.0,-99.9,-100.00,ESE,110,9.0,14.0,-999,0.00,,,-99.99,,2013-04-26 21:42:00,
2013-04-26 16:53:00,54.0,-99.9,-100.00,ESE,107,7.0,14.0,-999,0.00,,,-99.99,,2013-04-26 21:53:00,
2013-04-26 17:03:00,54.0,-99.9,-100.00,East,93,8.0,12.0,-999,0.00,,,-99.99,,2013-04-26 22:03:00,
2013-04-26 17:13:00,54.0,-99.9,-100.00,East,93,8.0,12.0,-999,0.00,,,-99.99,,2013-04-26 22:13:00,
2013-04-26 17:23:00,54.0,-99.9,-100.00,East,100,9.0,13.0,-999,0.00,,,-99.99,,2013-04-26 22:23:00,
2013-04-26 17:33:00,54.0,-99.9,-100.00,ESE,120,8.0,11.0,-999,0.00,,,-99.99,,2013-04-26 22:33:00,
2013-04-26 17:42:00,54.0,-99.9,-100.00,ESE,120,8.0,11.0,-999,0.00,,,-99.99,,2013-04-26 22:42:00,
2013-04-26 17:52:00,53.0,-99.9,-100.00,ESE,111,7.0,10.0,-999,0.00,,,-99.99,,2013-04-26 22:52:00,
2013-04-26 18:02:00,53.0,-99.9,-100.00,ESE,118,7.0,11.0,-999,0.00,,,-99.99,,2013-04-26 23:02:00,
2013-04-26 18:12:00,53.0,-99.9,-100.00,ESE,118,7.0,11.0,-999,0.00,,,-99.99,,2013-04-26 23:12:00,
2013-04-26 18:22:00,53.0,-99.9,-100.00,ESE,114,4.0,6.0,-999,0.00,,,-99.99,,2013-04-26 23:22:00,
2013-04-26 18:32:00,53.0,-99.9,-100.00,East,87,5.0,7.0,-999,0.00,,,-99.99,,2013-04-26 23:32:00,
2013-04-26 18:42:00,53.0,-99.9,-100.00,East,87,5.0,7.0,-999,0.00,,,-99.99,,2013-04-26 23:42:00,
2013-04-26 18:52:00,53.0,-99.9,-100.00,ESE,108,3.0,6.0,-999,0.00,,,-99.99,,2013-04-26 23:52:00,
2013-04-26 19:01:00,53.0,-99.9,-100.00,North,0,0.0,0.0,-999,0.00,,,-99.99,,2013-04-27 00:01:00,
2013-04-26 19:12:00,53.0,-99.9,-100.00,North,0,0.0,0.0,-999,0.00,,,-99.99,,2013-04-27 00:12:00,
2013-04-26 19:22:00,53.0,-99.9,-100.00,East,90,3.0,5.0,-999,0.00,,,-99.99,,2013-04-27 00:22:00,
2013-04-26 19:32:00,53.0,-99.9,-100.00,ESE,113,5.0,8.0,-999,0.00,,,-99.99,,2013-04-27 00:32:00,
2013-04-26 19:42:00,53.0,-99.9,-100.00,ESE,113,5.0,8.0,-999,0.00,,,-99.99,,2013-04-27 00:42:00,
2013-04-26 19:52:00,53.0,-99.9,-100.00,SE,127,4.0,6.0,-999,0.00,,,-99.99,,2013-04-27 00:52:00,
2013-04-26 20:01:00,53.0,-99.9,-100.00,East,96,3.0,4.0,-999,0.00,,,-99.99,,2013-04-27 01:01:00,
2013-04-26 20:12:00,53.0,-99.9,-100.00,East,96,3.0,4.0,-999,0.00,,,-99.99,,2013-04-27 01:12:00,
2013-04-26 20:22:00,53.0,-99.9,-100.00,ESE,107,2.0,3.0,-999,0.00,,,-99.99,,2013-04-27 01:22:00,
2013-04-26 20:32:00,53.0,-99.9,-100.00,ESE,113,5.0,8.0,-999,0.00,,,-99.99,,2013-04-27 01:32:00,
2013-04-26 20:42:00,53.0,-99.9,-100.00,ESE,113,5.0,8.0,-999,0.00,,,-99.99,,2013-04-27 01:42:00,
2013-04-26 20:52:00,53.0,-99.9,-100.00,ESE,110,5.0,8.0,-999,0.00,,,-99.99,,2013-04-27 01:52:00,
2013-04-26 21:02:00,53.0,-99.9,-100.00,East,91,5.0,8.0,-999,0.00,,,-99.99,,2013-04-27 02:02:00,
2013-04-26 21:11:00,53.0,-99.9,-100.00,East,91,5.0,8.0,-999,0.00,,,-99.99,,2013-04-27 02:11:00,
2013-04-26 21:22:00,53.0,-99.9,-100.00,SE,125,5.0,7.0,-999,0.00,,,-99.99,,2013-04-27 02:22:00,
2013-04-26 21:32:00,53.0,-99.9,-100.00,SE,127,2.0,4.0,-999,0.00,,,-99.99,,2013-04-27 02:32:00,
2013-04-26 21:42:00,53.0,-99.9,-100.00,SE,127,2.0,4.0,-999,0.00,,,-99.99,,2013-04-27 02:42:00,
2013-04-26 21:52:00,53.0,-99.9,-100.00,North,0,0.0,0.0,-999,0.00,,,-99.99,,2013-04-27 02:52:00,
2013-04-26 22:02:00,53.0,-99.9,-100.00,NE,45,0.0,1.0,-999,0.00,,,-99.99,,2013-04-27 03:02:00,
2013-04-26 22:11:00,53.0,-99.9,-100.00,NE,45,0.0,1.0,-999,0.00,,,-99.99,,2013-04-27 03:11:00,
2013-04-26 22:22:00,53.0,-99.9,-100.00,NNE,21,3.0,4.0,-999,0.00,,,-99.99,,2013-04-27 03:22:00,
2013-04-26 22:33:00,53.0,-99.9,-100.00,North,8,3.0,4.0,-999,0.00,,,-99.99,,2013-04-27 03:33:00,
2013-04-26 22:43:00,53.0,-99.9,-100.00,North,8,3.0,4.0,-999,0.00,,,-99.99,,2013-04-27 03:43:00,
2013-04-26 22:53:00,53.0,-99.9,-100.00,NE,34,2.0,5.0,-999,0.00,,,-99.99,,2013-04-27 03:53:00,
2013-04-26 23:03:00,53.0,-99.9,-100.00,ENE,73,1.0,3.0,-999,0.00,,,-99.99,,2013-04-27 04:03:00,
2013-04-26 23:13:00,53.0,-99.9,-100.00,ENE,73,1.0,3.0,-999,0.00,,,-99.99,,2013-04-27 04:13:00,
2013-04-26 23:23:00,53.0,-99.9,-100.00,NE,52,2.0,3.0,-999,0.00,,,-99.99,,2013-04-27 04:23:00,
2013-04-26 23:33:00,53.0,-99.9,-100.00,NE,56,3.0,5.0,-999,0.00,,,-99.99,,2013-04-27 04:33:00,
2013-04-26 23:43:00,53.0,-99.9,-100.00,NE,56,3.0,5.0,-999,0.00,,,-99.99,,2013-04-27 04:43:00,
2013-04-26 23:53:00,53.0,-99.9,-100.00,NE,38,4.0,5.0,-999,0.00,,,-99.99,,2013-04-27 04:53:00,